Tuesday, January 16, 2018, 12:28 PM EST
Back to Local

KEZF, Fredericksburg, Shannon Airport

Location: Fredericksburg, VA, United States Lat: 38.267
Local Time: 12:28 PM EST (17:28 GMT) Lon: -77.45
Time Zone: US/Eastern Elev: 85 ft

Show me the last for .
Show Coded

Time T Td Feel RH Dir Speed Gust Alt SLP Vis Weather Sky Remarks
2018-01-16 12:15 36 28 - 70 - Calm - 30.43 - 10 CLR None
2018-01-16 11:35 34 28 - 79 - Calm - 30.46 - 10 CLR None
2018-01-16 11:15 33 28 - 82 - Calm - 30.47 - 10 CLR None
2018-01-16 10:55 31 28 - 86 - Calm - 30.48 - 10 SCT007 SCT100 None
2018-01-16 10:35 30 28 - 91 - Calm - 30.49 - 10 SCT007 None
2018-01-16 10:15 29 28 - 97 - Calm - 30.50 - 10 BKN007 None
2018-01-16 09:55 28 28 24 100 100° 3 - 30.49 - 10 OVC005 None
2018-01-16 09:35 28 28 24 100 120° 3 - 30.49 - 10 OVC005 None
2018-01-16 09:15 28 28 - 100 - Calm - 30.49 - 10 OVC003 None
2018-01-16 08:55 27 27 - 100 - Calm - 30.49 - 7 OVC003 None
2018-01-16 08:35 27 27 22 100 160° 5 - 30.49 - 7 OVC003 None
2018-01-16 08:15 27 27 23 100 160° 3 - 30.49 - 7 OVC003 None
2018-01-16 07:55 27 27 23 100 110° 3 - 30.48 - 7 OVC003 None
2018-01-16 07:35 27 27 23 100 130° 3 - 30.48 - 4 BR OVC003 None
2018-01-16 07:15 27 27 - 100 - Calm - 30.48 - 10 OVC003 None
2018-01-16 06:55 27 27 23 100 120° 3 - 30.47 - 10 OVC003 6-hr Min Temp (7am): 26.6°F
6-hr Max Temp (7am): 28.2°F
2018-01-16 06:35 27 27 21 100 130° 5 - 30.47 - 10 OVC005 None
2018-01-16 06:15 27 27 - 100 - Calm - 30.48 - 10 OVC005 None
2018-01-16 05:55 27 27 - 100 - Calm - 30.48 - 10 OVC005 None
2018-01-16 05:35 27 27 - 100 - Calm - 30.47 - 10 OVC005 None
2018-01-16 05:15 27 27 - 100 - Calm - 30.46 - 10 OVC005 None
2018-01-16 04:55 27 27 22 100 160° 5 - 30.46 - 10 OVC005 None
2018-01-16 04:35 28 28 - 100 - Calm - 30.46 - 10 OVC005 None
2018-01-16 04:15 28 28 - 100 - Calm - 30.47 - 10 OVC005 None
2018-01-16 03:55 28 28 - 100 - Calm - 30.46 - 10 OVC007 None
2018-01-16 03:35 28 28 - 100 - Calm - 30.45 - 10 OVC007 None
2018-01-16 03:15 28 28 - 99 - Calm - 30.45 - 10 OVC007 None
2018-01-16 02:55 28 28 - 98 - Calm - 30.46 - 10 OVC007 None
2018-01-16 02:35 28 26 - 95 - Calm - 30.46 - 10 OVC007 None
2018-01-16 02:15 28 27 - 94 - Calm - 30.46 - 10 OVC007 None
2018-01-16 01:55 27 26 - 92 - Calm - 30.47 - 10 OVC009 None
2018-01-16 01:35 27 25 23 92 150° 3 - 30.46 - 10 OVC009 None
2018-01-16 01:15 28 25 - 90 - Calm - 30.47 - 10 OVC009 None
2018-01-16 00:55 28 25 - 89 - Calm - 30.47 - 10 OVC011 6-hr Min Temp (1am): 23.0°F
6-hr Max Temp (1am): 27.5°F
24-hr Min Temp (1am): 15.4°F
24-hr Max Temp (1am): 35.2°F
2018-01-16 00:35 27 24 - 91 - Calm - 30.47 - 10 OVC011 None
2018-01-16 00:15 26 24 - 90 - Calm - 30.47 - 10 OVC011 None
2018-01-15 23:55 27 24 - 89 - Calm - 30.49 - 10 OVC013 None
2018-01-15 23:35 26 23 - 87 - Calm - 30.48 - 10 OVC013 None
2018-01-15 23:10 25 23 - 89 - Calm - 30.49 - 10 BKN013 None
2018-01-15 22:55 25 22 - 88 - Calm - 30.49 - 10 BKN013 None
2018-01-15 22:35 25 22 - 89 - Calm - 30.50 - 10 BKN013 None
2018-01-15 22:15 25 22 - 88 - Calm - 30.50 - 10 SCT013 None
2018-01-15 21:55 24 22 - 91 - Calm - 30.49 - 10 BKN013 None
2018-01-15 21:35 24 21 - 89 - Calm - 30.49 - 10 BKN013 None
2018-01-15 21:15 24 22 20 89 320° 3 - 30.50 - 10 SCT011 None
2018-01-15 20:55 25 22 - 89 - Calm - 30.49 - 10 SCT011 None
2018-01-15 20:35 23 21 - 91 - Calm - 30.49 - 10 CLR None
2018-01-15 20:15 25 22 - 88 - Calm - 30.48 - 10 CLR None
2018-01-15 19:55 25 22 - 88 - Calm - 30.49 - 10 CLR None
2018-01-15 19:35 26 22 - 85 - Calm - 30.50 - 10 CLR None
2018-01-15 19:15 26 22 - 84 - Calm - 30.50 - 10 CLR None
2018-01-15 18:55 27 22 - 80 - Calm - 30.50 - 10 CLR 6-hr Min Temp (7pm): 27.3°F
6-hr Max Temp (7pm): 35.2°F
2018-01-15 18:35 29 23 - 75 - Calm - 30.48 - 10 CLR None
2018-01-15 18:15 30 23 26 74 70° 3 - 30.49 - 10 CLR None
2018-01-15 17:55 30 23 27 73 70° 3 - 30.48 - 10 CLR None
2018-01-15 17:35 31 23 27 73 60° 3 - 30.49 - 10 CLR None
2018-01-15 17:10 32 23 29 70 70° 3 - 30.48 - 10 CLR None
2018-01-15 16:55 32 24 - 70 - Calm - 30.48 - 10 CLR None
2018-01-15 16:35 33 24 29 68 110° 5 - 30.47 - 10 CLR None
2018-01-15 16:15 33 23 28 66 100° 6 - 30.47 - 10 CLR None
2018-01-15 15:55 33 23 - 65 - Calm - 30.50 - 10 CLR None
2018-01-15 15:35 34 23 28 65 50° 6 - 30.47 - 10 CLR None
2018-01-15 15:15 34 23 28 63 50° 7 - 30.46 - 10 CLR None
2018-01-15 14:55 35 23 30 60 40° 6 - 30.47 - 10 CLR None
2018-01-15 14:35 35 21 32 57 50° 3 - 30.47 - 10 CLR None
2018-01-15 14:15 34 21 - 58 - Calm - 30.48 - 10 CLR None
2018-01-15 13:55 33 20 29 58 350° 5 - 30.47 - 10 CLR None
2018-01-15 13:35 32 20 - 60 - Calm - 30.48 - 10 CLR None
2018-01-15 13:15 32 20 27 59 20° 5 - 30.50 - 10 CLR None
2018-01-15 12:55 32 19 27 58 310° 5 - 30.51 - 10 CLR 6-hr Min Temp (1pm): 15.4°F
6-hr Max Temp (1pm): 31.8°F
2018-01-15 12:35 30 18 25 60 300° 5 - 30.54 - 10 CLR None

Support USWX by starting your Amazon purchase here.